Jaipur, India

11:06 PM IST on April 24, 2018 (GMT +0530)
Jaipur

Weather History for VIJP - August, 2013

Change the Weather History Date:

Friday, August 2, 2013

  Actual Average Record
Temperature  
Mean Temperature 84 °F -  
Max Temperature 90 °F - - ()
Min Temperature 79 °F - - ()
Cooling Degree Days 20    
Growing Degree Days 34 (Base 50)    
Moisture  
Dew Point 78 °F    
Average Humidity 82    
Maximum Humidity 94    
Minimum Humidity 61    
Precipitation  
Precipitation 0.00 in - - ()
Sea Level Pressure  
Sea Level Pressure 29.54 in    
Wind  
Wind Speed 6 mph ()    
Max Wind Speed 13 mph    
Max Gust Speed -    
Visibility 1.8 miles    
Events      
T = Trace of Precipitation, MM = Missing Value Source: Averaged Metar Reports

Daily Weather History Graph

Daily Weather History Graph

Search for Another Location

Airport or City:

Astronomy

Aug. 02, 2013 Rise Set
Actual Time 5:51 AM IST 7:13 PM IST
Civil Twilight 5:26 AM IST 7:38 PM IST
Nautical Twilight 4:57 AM IST 8:08 PM IST
Astronomical Twilight 4:26 AM IST 8:39 PM IST
Moon 1:55 AM IST (8/2) 3:45 PM IST (8/2)
Length of Visible Light 14h 12m
Length of Day
13h 22m
Waning Crescent, 19% of the Moon is Illuminated
Aug 2
Waning Crescent
Aug 7
New
Aug 14
First Quarter
Aug 21
Full
Aug 28
Last Quarter

Hourly Weather History & Observations

Time (IST) Temp. Heat Index Dew Point Humidity Pressure Visibility Wind Dir Wind Speed Gust Speed Precip Events Conditions
12:00 AM 82.4 °F 92.4 °F 78.8 °F 89% 29.56 in 1.6 mi ENE 4.6 mph - N/A   Scattered Clouds
1:00 AM 82.4 °F 92.4 °F 78.8 °F 89% 29.53 in 1.6 mi Variable 1.2 mph - N/A   Scattered Clouds
2:00 AM 82.4 °F 92.4 °F 78.8 °F 89% 29.53 in 1.6 mi ENE 4.6 mph - N/A   Scattered Clouds
2:30 AM 82 °F - 78 °F 83% 29.46 in 1 mi ENE 6.9 mph - -   Mist
2:30 AM 82.4 °F 92.4 °F 78.8 °F 89% 29.53 in 1.6 mi ENE 6.9 mph - N/A   Scattered Clouds
5:00 AM 80.6 °F 88.1 °F 78.8 °F 94% 29.53 in 1.6 mi East 4.6 mph - N/A   Scattered Clouds
5:30 AM 81 °F - 78 °F 86% 29.48 in 1 mi East 4.6 mph - -   Mist
6:00 AM 80.6 °F 88.1 °F 78.8 °F 94% 29.56 in 1.6 mi Variable 3.5 mph - N/A   Scattered Clouds
7:00 AM 80.6 °F 88.1 °F 78.8 °F 94% 29.56 in 1.6 mi East 5.8 mph - N/A   Scattered Clouds
8:00 AM 82.4 °F 92.4 °F 78.8 °F 89% 29.56 in 1.6 mi East 6.9 mph - N/A   Scattered Clouds
8:30 AM 82 °F - 78 °F 86% 29.51 in 1 mi East 5.8 mph - -   Mist
9:00 AM 82.4 °F 92.4 °F 78.8 °F 89% 29.59 in 1.6 mi East 10.4 mph - N/A   Scattered Clouds
10:00 AM 84.2 °F 94.1 °F 77.0 °F 79% 29.59 in 1.6 mi East 10.4 mph - N/A   Mostly Cloudy
11:00 AM 87.8 °F 102.5 °F 78.8 °F 75% 29.59 in 2.5 mi East 11.5 mph - N/A   Haze
12:00 PM 86.0 °F 99.3 °F 78.8 °F 79% 29.59 in 2.5 mi East 12.7 mph - N/A   Haze
1:00 PM 87.8 °F 102.5 °F 78.8 °F 75% 29.56 in 2.5 mi East 10.4 mph - N/A   Haze
2:00 PM 89.6 °F 104.7 °F 78.8 °F 70% 29.56 in 2.5 mi East 12.7 mph - N/A   Haze
2:30 PM 88 °F - 77 °F 63% 29.48 in 2 mi East 6.9 mph - -   Haze
3:00 PM 86.0 °F 99.3 °F 78.8 °F 79% 29.56 in 2.5 mi East 11.5 mph - N/A   Haze
4:00 PM 87.8 °F 102.5 °F 78.8 °F 75% 29.53 in 2.5 mi ENE 10.4 mph - N/A   Haze
5:00 PM 87.8 °F 102.5 °F 78.8 °F 75% 29.50 in 2.5 mi ENE 11.5 mph - N/A   Haze
5:30 PM 88 °F - 76 °F 61% 29.43 in 2 mi East 6.9 mph - -   Haze
6:00 PM 87.8 °F 102.5 °F 78.8 °F 75% 29.50 in 2.5 mi East 12.7 mph - N/A   Haze
7:00 PM 84.2 °F 96.1 °F 78.8 °F 84% 29.53 in 2.5 mi East 10.4 mph - N/A   Haze
8:30 PM 83 °F - 79 °F 84% 29.50 in 1 mi East 5.8 mph - -   Mist
9:00 PM 82.4 °F 92.4 °F 78.8 °F 89% 29.59 in 1.9 mi East 6.9 mph - N/A   Scattered Clouds
10:00 PM 82.4 °F 92.4 °F 78.8 °F 89% 29.59 in 1.9 mi East 6.9 mph - N/A   Scattered Clouds
11:00 PM 82.4 °F 90.9 °F 77.0 °F 84% 29.62 in 1.9 mi East 9.2 mph - N/A   Scattered Clouds
11:30 PM 82 °F - 77 °F 82% 29.52 in 1 mi East 6.9 mph - -   Mist